Time,TemperatureF,DewpointF,PressureIn,WindDirection,WindDirectionDegrees,WindSpeedMPH,WindSpeedGustMPH,Humidity,HourlyPrecipIn,Conditions,Clouds,dailyrainin,SoftwareType,DateUTC
2013-06-26 00:00:00,78.7,71.3,29.91,SSE,153,0.0,7.0,78,0.00,,SKC,0.00,VWS V14.01,2013-06-26 05:00:00,
2013-06-26 00:01:00,78.5,71.4,29.91,SSE,152,0.0,2.0,79,0.00,,SKC,0.00,VWS V14.01,2013-06-26 05:01:00,
2013-06-26 00:06:00,78.4,71.3,29.91,SSE,152,0.0,2.0,79,0.00,,SKC,0.00,VWS V14.01,2013-06-26 05:06:00,
2013-06-26 00:10:00,78.4,71.3,29.91,SSE,152,0.0,2.0,79,0.00,,SKC,0.00,VWS V14.01,2013-06-26 05:10:00,
2013-06-26 00:11:00,78.2,71.5,29.91,SSE,152,0.0,0.0,80,0.00,,SKC,0.00,VWS V14.01,2013-06-26 05:11:00,
2013-06-26 00:16:00,78.0,71.3,29.91,SSE,152,0.0,0.0,80,0.00,,SKC,0.00,VWS V14.01,2013-06-26 05:16:00,
2013-06-26 00:20:00,78.0,71.3,29.91,SSE,152,0.0,0.0,80,0.00,,SKC,0.00,VWS V14.01,2013-06-26 05:20:00,
2013-06-26 00:21:00,77.9,71.6,29.91,SSE,152,0.0,2.0,81,0.00,,SKC,0.00,VWS V14.01,2013-06-26 05:21:00,
2013-06-26 00:26:00,77.7,71.4,29.91,SSE,153,0.0,6.0,81,0.00,,SKC,0.00,VWS V14.01,2013-06-26 05:26:00,
2013-06-26 00:30:00,77.7,71.4,29.91,SSE,153,0.0,6.0,81,0.00,,SKC,0.00,VWS V14.01,2013-06-26 05:30:00,
2013-06-26 00:31:00,77.6,71.7,29.91,SSE,153,0.0,0.0,82,0.00,,SKC,0.00,VWS V14.01,2013-06-26 05:31:00,
2013-06-26 00:36:00,77.4,71.5,29.91,SSE,153,0.0,2.0,82,0.00,,SKC,0.00,VWS V14.01,2013-06-26 05:36:00,
2013-06-26 00:40:00,77.4,71.5,29.91,SSE,153,0.0,2.0,82,0.00,,SKC,0.00,VWS V14.01,2013-06-26 05:40:00,
2013-06-26 00:41:00,77.2,71.6,29.91,SSE,153,0.0,0.0,83,0.00,,SKC,0.00,VWS V14.01,2013-06-26 05:41:00,
2013-06-26 00:46:00,77.1,71.9,29.91,SSE,150,0.0,1.0,84,0.00,,SKC,0.00,VWS V14.01,2013-06-26 05:46:00,
2013-06-26 00:50:00,77.1,71.9,29.91,SSE,150,0.0,1.0,84,0.00,,SKC,0.00,VWS V14.01,2013-06-26 05:50:00,
2013-06-26 00:51:00,76.9,71.7,29.91,SSE,150,0.0,3.0,84,0.00,,SKC,0.00,VWS V14.01,2013-06-26 05:51:00,
2013-06-26 00:56:00,76.8,71.9,29.91,SSE,150,0.0,3.0,85,0.00,,SKC,0.00,VWS V14.01,2013-06-26 05:56:00,
2013-06-26 01:00:00,76.8,71.9,29.91,SSE,150,0.0,3.0,85,0.00,,SKC,0.00,VWS V14.01,2013-06-26 06:00:00,
2013-06-26 01:01:00,76.7,71.9,29.91,SSE,150,0.0,3.0,85,0.00,,SKC,0.00,VWS V14.01,2013-06-26 06:01:00,
2013-06-26 01:06:00,76.5,72.0,29.91,SSE,150,0.0,6.0,86,0.00,,SKC,0.00,VWS V14.01,2013-06-26 06:06:00,
2013-06-26 01:10:00,76.5,72.0,29.91,SSE,150,0.0,6.0,86,0.00,,SKC,0.00,VWS V14.01,2013-06-26 06:10:00,
2013-06-26 01:11:00,76.4,71.9,29.90,SSE,153,0.0,8.0,86,0.00,,SKC,0.00,VWS V14.01,2013-06-26 06:11:00,
2013-06-26 01:16:00,76.4,72.2,29.90,SSE,153,4.0,8.0,87,0.00,,SKC,0.00,VWS V14.01,2013-06-26 06:16:00,
2013-06-26 01:20:00,76.4,72.2,29.90,SSE,154,7.0,8.0,87,0.00,,SKC,0.00,VWS V14.01,2013-06-26 06:20:00,
2013-06-26 01:21:00,76.3,72.2,29.90,SSE,154,1.0,7.0,87,0.00,,SKC,0.00,VWS V14.01,2013-06-26 06:21:00,
2013-06-26 01:26:00,76.2,72.4,29.90,SSE,152,0.0,7.0,88,0.00,,SKC,0.00,VWS V14.01,2013-06-26 06:26:00,
2013-06-26 01:30:00,76.2,72.4,29.90,SSE,152,0.0,7.0,88,0.00,,SKC,0.00,VWS V14.01,2013-06-26 06:30:00,
2013-06-26 01:31:00,76.2,72.4,29.90,SSE,153,0.0,6.0,88,0.00,,SKC,0.00,VWS V14.01,2013-06-26 06:31:00,
2013-06-26 01:36:00,76.1,72.3,29.90,SSE,155,5.0,9.0,88,0.00,,SKC,0.00,VWS V14.01,2013-06-26 06:36:00,
2013-06-26 01:40:00,76.1,72.3,29.90,SSE,155,0.0,9.0,88,0.00,,SKC,0.00,VWS V14.01,2013-06-26 06:40:00,
2013-06-26 01:41:00,76.0,72.5,29.89,SSE,157,0.0,8.0,89,0.00,,SKC,0.00,VWS V14.01,2013-06-26 06:41:00,
2013-06-26 01:46:00,75.9,72.4,29.89,SSE,157,0.0,8.0,89,0.00,,SKC,0.00,VWS V14.01,2013-06-26 06:46:00,
2013-06-26 01:50:00,75.9,72.4,29.89,SSE,157,0.0,8.0,89,0.00,,SKC,0.00,VWS V14.01,2013-06-26 06:50:00,
2013-06-26 01:51:00,75.8,72.3,29.89,SSE,159,0.0,8.0,89,0.00,,SKC,0.00,VWS V14.01,2013-06-26 06:51:00,
2013-06-26 01:56:00,75.8,72.7,29.89,SSE,159,0.0,8.0,90,0.00,,SKC,0.00,VWS V14.01,2013-06-26 06:56:00,
2013-06-26 02:00:00,75.8,72.7,29.89,SSE,159,0.0,8.0,90,0.00,,SKC,0.00,VWS V14.01,2013-06-26 07:00:00,
2013-06-26 02:01:00,75.7,72.6,29.89,SSE,159,0.0,7.0,90,0.00,,SKC,0.00,VWS V14.01,2013-06-26 07:01:00,
2013-06-26 02:06:00,75.7,72.6,29.88,SSE,160,8.0,8.0,90,0.00,,SKC,0.00,VWS V14.01,2013-06-26 07:06:00,
2013-06-26 02:10:00,75.7,72.6,29.88,SSE,160,5.0,10.0,90,0.00,,SKC,0.00,VWS V14.01,2013-06-26 07:10:00,
2013-06-26 02:11:00,75.6,72.5,29.88,SSE,168,0.0,10.0,90,0.00,,SKC,0.00,VWS V14.01,2013-06-26 07:11:00,
2013-06-26 02:16:00,75.6,72.5,29.88,SSE,166,0.0,10.0,90,0.00,,SKC,0.00,VWS V14.01,2013-06-26 07:16:00,
2013-06-26 02:20:00,75.6,72.5,29.88,SSE,166,0.0,10.0,90,0.00,,SKC,0.00,VWS V14.01,2013-06-26 07:20:00,
2013-06-26 02:21:00,75.6,72.5,29.88,SSE,165,0.0,9.0,90,0.00,,SKC,0.00,VWS V14.01,2013-06-26 07:21:00,
2013-06-26 02:26:00,75.7,72.6,29.88,SSE,166,0.0,9.0,90,0.00,,SKC,0.00,VWS V14.01,2013-06-26 07:26:00,
2013-06-26 02:30:00,75.7,72.6,29.88,SSE,166,0.0,9.0,90,0.00,,SKC,0.00,VWS V14.01,2013-06-26 07:30:00,
2013-06-26 02:31:00,75.7,72.6,29.88,SSE,162,5.0,9.0,90,0.00,,SKC,0.00,VWS V14.01,2013-06-26 07:31:00,
2013-06-26 02:36:00,75.8,72.7,29.88,SSE,162,0.0,9.0,90,0.00,,SKC,0.00,VWS V14.01,2013-06-26 07:36:00,
2013-06-26 02:40:00,75.8,72.7,29.88,SSE,162,0.0,9.0,90,0.00,,SKC,0.00,VWS V14.01,2013-06-26 07:40:00,
2013-06-26 02:41:00,75.9,72.8,29.88,SSE,162,9.0,9.0,90,0.00,,SKC,0.00,VWS V14.01,2013-06-26 07:41:00,
2013-06-26 02:46:00,76.0,72.9,29.88,SSE,163,0.0,9.0,90,0.00,,SKC,0.00,VWS V14.01,2013-06-26 07:46:00,
2013-06-26 02:50:00,76.0,72.9,29.88,SSE,163,0.0,9.0,90,0.00,,SKC,0.00,VWS V14.01,2013-06-26 07:50:00,
2013-06-26 02:51:00,76.2,73.1,29.88,SSE,163,0.0,7.0,90,0.00,,SKC,0.00,VWS V14.01,2013-06-26 07:51:00,
2013-06-26 02:56:00,76.3,73.2,29.88,SSE,163,0.0,8.0,90,0.00,,SKC,0.00,VWS V14.01,2013-06-26 07:56:00,
2013-06-26 03:00:00,76.3,73.2,29.88,SSE,163,0.0,8.0,90,0.00,,SKC,0.00,VWS V14.01,2013-06-26 08:00:00,
2013-06-26 03:01:00,76.4,72.9,29.88,SSE,163,0.0,10.0,89,0.00,,SKC,0.00,VWS V14.01,2013-06-26 08:01:00,
2013-06-26 03:06:00,76.5,73.0,29.88,SSE,163,0.0,10.0,89,0.00,,SKC,0.00,VWS V14.01,2013-06-26 08:06:00,
2013-06-26 03:10:00,76.5,73.0,29.88,SSE,163,0.0,10.0,89,0.00,,SKC,0.00,VWS V14.01,2013-06-26 08:10:00,
2013-06-26 03:11:00,76.6,73.1,29.88,SSE,161,3.0,12.0,89,0.00,,SKC,0.00,VWS V14.01,2013-06-26 08:11:00,
2013-06-26 03:16:00,76.7,73.2,29.89,SSE,159,0.0,12.0,89,0.00,,SKC,0.00,VWS V14.01,2013-06-26 08:16:00,
2013-06-26 03:20:00,76.7,73.2,29.89,SSE,159,0.0,12.0,89,0.00,,SKC,0.00,VWS V14.01,2013-06-26 08:20:00,
2013-06-26 03:21:00,76.8,73.0,29.89,SSE,157,0.0,9.0,88,0.00,,SKC,0.00,VWS V14.01,2013-06-26 08:21:00,
2013-06-26 03:26:00,76.9,73.1,29.89,SSE,158,0.0,9.0,88,0.00,,SKC,0.00,VWS V14.01,2013-06-26 08:26:00,
2013-06-26 03:30:00,76.8,73.0,29.89,SSE,157,7.0,9.0,88,0.00,,SKC,0.00,VWS V14.01,2013-06-26 08:30:00,
2013-06-26 03:31:00,76.9,73.1,29.89,SSE,166,0.0,10.0,88,0.00,,SKC,0.00,VWS V14.01,2013-06-26 08:31:00,
2013-06-26 03:36:00,76.9,73.1,29.89,SSE,162,0.0,10.0,88,0.00,,SKC,0.00,VWS V14.01,2013-06-26 08:36:00,
2013-06-26 03:40:00,76.9,73.1,29.90,SSE,162,0.0,6.0,88,0.00,,SKC,0.00,VWS V14.01,2013-06-26 08:40:00,
2013-06-26 03:45:00,76.9,73.1,29.90,SSE,162,0.0,6.0,88,0.00,,SKC,0.00,VWS V14.01,2013-06-26 08:45:00,
2013-06-26 03:50:00,76.9,73.1,29.90,SSE,164,3.0,7.0,88,0.00,,SKC,0.00,VWS V14.01,2013-06-26 08:50:00,
2013-06-26 03:55:00,76.9,73.1,29.89,SSE,165,2.0,7.0,88,0.00,,SKC,0.00,VWS V14.01,2013-06-26 08:55:00,
2013-06-26 04:00:00,76.9,73.1,29.89,SSE,167,0.0,6.0,88,0.00,,SKC,0.00,VWS V14.01,2013-06-26 09:00:00,
2013-06-26 04:05:00,76.9,72.7,29.89,South,177,3.0,8.0,87,0.00,,SKC,0.00,VWS V14.01,2013-06-26 09:05:00,
2013-06-26 04:10:00,76.9,72.7,29.89,South,170,3.0,7.0,87,0.00,,SKC,0.00,VWS V14.01,2013-06-26 09:10:00,
2013-06-26 04:15:00,76.9,72.7,29.89,SSE,166,0.0,9.0,87,0.00,,SKC,0.00,VWS V14.01,2013-06-26 09:15:00,
2013-06-26 04:20:00,76.9,72.7,29.89,SSE,166,1.0,4.0,87,0.00,,SKC,0.00,VWS V14.01,2013-06-26 09:20:00,
2013-06-26 04:25:00,76.9,72.4,29.89,South,171,2.0,11.0,86,0.00,,SKC,0.00,VWS V14.01,2013-06-26 09:25:00,
2013-06-26 04:30:00,76.9,72.4,29.89,SSE,161,3.0,11.0,86,0.00,,SKC,0.00,VWS V14.01,2013-06-26 09:30:00,
2013-06-26 04:35:00,77.0,72.5,29.89,SSE,157,3.0,11.0,86,0.00,,SKC,0.00,VWS V14.01,2013-06-26 09:35:00,
2013-06-26 04:40:00,77.0,72.5,29.89,SSE,158,0.0,5.0,86,0.00,,SKC,0.00,VWS V14.01,2013-06-26 09:40:00,
2013-06-26 04:45:00,77.0,72.5,29.89,SSE,158,0.0,5.0,86,0.00,,SKC,0.00,VWS V14.01,2013-06-26 09:45:00,
2013-06-26 04:50:00,77.0,72.5,29.89,SSE,165,0.0,9.0,86,0.00,,SKC,0.00,VWS V14.01,2013-06-26 09:50:00,
2013-06-26 04:55:00,77.0,72.5,29.89,SSE,165,0.0,9.0,86,0.00,,SKC,0.00,VWS V14.01,2013-06-26 09:55:00,
2013-06-26 05:00:00,77.0,72.5,29.89,SSE,165,0.0,4.0,86,0.00,,SKC,0.00,VWS V14.01,2013-06-26 10:00:00,
2013-06-26 05:05:00,77.0,72.5,29.89,South,171,7.0,7.0,86,0.00,,SKC,0.00,VWS V14.01,2013-06-26 10:05:00,
2013-06-26 05:10:00,77.0,72.5,29.89,SSE,166,0.0,6.0,86,0.00,,SKC,0.00,VWS V14.01,2013-06-26 10:10:00,
2013-06-26 05:15:00,77.0,72.5,29.89,SSE,166,0.0,6.0,86,0.00,,SKC,0.00,VWS V14.01,2013-06-26 10:15:00,
2013-06-26 05:20:00,77.0,72.8,29.89,SSE,167,0.0,7.0,87,0.00,,SKC,0.00,VWS V14.01,2013-06-26 10:20:00,
2013-06-26 05:25:00,77.0,72.8,29.89,SSE,166,0.0,7.0,87,0.00,,SKC,0.00,VWS V14.01,2013-06-26 10:25:00,
2013-06-26 05:30:00,76.9,72.7,29.90,SSE,166,0.0,5.0,87,0.00,,SKC,0.00,VWS V14.01,2013-06-26 10:30:00,
2013-06-26 05:35:00,76.9,72.7,29.89,SSE,166,0.0,5.0,87,0.00,,SKC,0.00,VWS V14.01,2013-06-26 10:35:00,
2013-06-26 05:40:00,76.9,72.7,29.90,SSE,166,0.0,0.0,87,0.00,,SKC,0.00,VWS V14.01,2013-06-26 10:40:00,
2013-06-26 05:45:00,76.8,72.6,29.90,SSE,166,0.0,3.0,87,0.00,,SKC,0.00,VWS V14.01,2013-06-26 10:45:00,
2013-06-26 05:50:00,76.9,72.7,29.90,SSE,166,0.0,0.0,87,0.00,,SKC,0.00,VWS V14.01,2013-06-26 10:50:00,
2013-06-26 05:55:00,76.9,72.7,29.89,SSE,163,6.0,6.0,87,0.00,,SKC,0.00,VWS V14.01,2013-06-26 10:55:00,
2013-06-26 06:00:00,76.9,72.7,29.90,SSE,163,0.0,2.0,87,0.00,,SKC,0.00,VWS V14.01,2013-06-26 11:00:00,
2013-06-26 06:05:00,76.9,72.7,29.90,SSE,163,0.0,3.0,87,0.00,,SKC,0.00,VWS V14.01,2013-06-26 11:05:00,
2013-06-26 06:10:00,76.9,72.7,29.90,SSE,164,0.0,4.0,87,0.00,,SKC,0.00,VWS V14.01,2013-06-26 11:10:00,
2013-06-26 06:15:00,77.0,72.8,29.90,SSE,164,0.0,4.0,87,0.00,,SKC,0.00,VWS V14.01,2013-06-26 11:15:00,
2013-06-26 06:20:00,77.0,72.8,29.90,SSE,163,3.0,5.0,87,0.00,,SKC,0.00,VWS V14.01,2013-06-26 11:20:00,
2013-06-26 06:25:00,77.0,72.8,29.91,SSE,163,0.0,7.0,87,0.00,,SKC,0.00,VWS V14.01,2013-06-26 11:25:00,
2013-06-26 06:30:00,77.1,72.6,29.90,South,173,0.0,9.0,86,0.00,,SKC,0.00,VWS V14.01,2013-06-26 11:30:00,
2013-06-26 06:35:00,77.2,72.7,29.91,South,171,0.0,9.0,86,0.00,,SKC,0.00,VWS V14.01,2013-06-26 11:35:00,
2013-06-26 06:40:00,77.2,72.7,29.91,South,171,0.0,5.0,86,0.00,,SKC,0.00,VWS V14.01,2013-06-26 11:40:00,
2013-06-26 06:45:00,77.3,72.8,29.90,SSE,167,0.0,5.0,86,0.00,,SKC,0.00,VWS V14.01,2013-06-26 11:45:00,
2013-06-26 06:50:00,77.4,72.9,29.91,SSE,166,0.0,5.0,86,0.00,,SKC,0.00,VWS V14.01,2013-06-26 11:50:00,
2013-06-26 06:55:00,77.4,72.5,29.91,SSE,167,0.0,5.0,85,0.00,,SKC,0.00,VWS V14.01,2013-06-26 11:55:00,
2013-06-26 07:00:00,77.4,72.5,29.91,SSE,167,0.0,4.0,85,0.00,,SKC,0.00,VWS V14.01,2013-06-26 12:00:00,
2013-06-26 07:05:00,77.5,72.6,29.90,SSE,167,0.0,5.0,85,0.00,,SKC,0.00,VWS V14.01,2013-06-26 12:05:00,
2013-06-26 07:10:00,77.6,72.7,29.90,SSE,167,1.0,5.0,85,0.00,,SKC,0.00,VWS V14.01,2013-06-26 12:10:00,
2013-06-26 07:15:00,77.8,72.6,29.91,South,169,0.0,6.0,84,0.00,,SKC,0.00,VWS V14.01,2013-06-26 12:15:00,
2013-06-26 07:20:00,77.9,72.7,29.91,South,169,0.0,0.0,84,0.00,,SKC,0.00,VWS V14.01,2013-06-26 12:20:00,
2013-06-26 07:25:00,78.0,72.8,29.91,South,169,0.0,0.0,84,0.00,,SKC,0.00,VWS V14.01,2013-06-26 12:25:00,
2013-06-26 07:30:00,78.3,72.7,29.91,South,169,0.0,6.0,83,0.00,,SKC,0.00,VWS V14.01,2013-06-26 12:30:00,
2013-06-26 07:35:00,78.4,72.8,29.92,SSE,168,0.0,6.0,83,0.00,,SKC,0.00,VWS V14.01,2013-06-26 12:35:00,
2013-06-26 07:40:00,78.6,73.0,29.92,South,171,0.0,10.0,83,0.00,,SKC,0.00,VWS V14.01,2013-06-26 12:40:00,
2013-06-26 07:45:00,78.7,72.8,29.92,SSE,162,6.0,10.0,82,0.00,,SKC,0.00,VWS V14.01,2013-06-26 12:45:00,
2013-06-26 07:50:00,78.9,72.9,29.92,SSE,161,4.0,9.0,82,0.00,,SKC,0.00,VWS V14.01,2013-06-26 12:50:00,
2013-06-26 07:55:00,79.0,73.0,29.92,SSE,167,4.0,9.0,82,0.00,,SKC,0.00,VWS V14.01,2013-06-26 12:55:00,
2013-06-26 08:00:00,79.1,73.1,29.92,SSE,164,0.0,8.0,82,0.00,,SKC,0.00,VWS V14.01,2013-06-26 13:00:00,
2013-06-26 08:05:00,79.1,73.1,29.92,SSE,164,0.0,12.0,82,0.00,,SKC,0.00,VWS V14.01,2013-06-26 13:05:00,
2013-06-26 08:10:00,79.2,73.2,29.92,SSE,163,1.0,8.0,82,0.00,,SKC,0.00,VWS V14.01,2013-06-26 13:10:00,
2013-06-26 08:15:00,79.3,73.3,29.92,SSW,192,6.0,9.0,82,0.00,,SKC,0.00,VWS V14.01,2013-06-26 13:15:00,
2013-06-26 08:20:00,79.4,73.1,29.92,SSE,150,4.0,7.0,81,0.00,,SKC,0.00,VWS V14.01,2013-06-26 13:20:00,
2013-06-26 08:25:00,79.4,73.1,29.92,SSW,193,0.0,12.0,81,0.00,,SKC,0.00,VWS V14.01,2013-06-26 13:25:00,
2013-06-26 08:30:00,79.6,73.3,29.92,South,172,0.0,7.0,81,0.00,,SKC,0.00,VWS V14.01,2013-06-26 13:30:00,
2013-06-26 08:35:00,79.7,73.4,29.92,South,171,0.0,7.0,81,0.00,,SKC,0.00,VWS V14.01,2013-06-26 13:35:00,
2013-06-26 08:40:00,79.9,73.2,29.92,SSE,159,5.0,9.0,80,0.00,,SKC,0.00,VWS V14.01,2013-06-26 13:40:00,
2013-06-26 08:45:00,80.0,73.7,29.92,SSE,154,4.0,11.0,81,0.00,,SKC,0.00,VWS V14.01,2013-06-26 13:45:00,
2013-06-26 08:50:00,80.1,73.4,29.92,South,178,8.0,12.0,80,0.00,,SKC,0.00,VWS V14.01,2013-06-26 13:50:00,
2013-06-26 08:55:00,80.2,73.5,29.93,SSW,196,0.0,12.0,80,0.00,,SKC,0.00,VWS V14.01,2013-06-26 13:55:00,
2013-06-26 09:00:00,80.5,73.8,29.93,SSW,209,3.0,11.0,80,0.00,,SKC,0.00,VWS V14.01,2013-06-26 14:00:00,
2013-06-26 09:05:00,80.8,73.7,29.92,SSE,163,3.0,11.0,79,0.00,,SKC,0.00,VWS V14.01,2013-06-26 14:05:00,
2013-06-26 09:10:00,81.2,73.7,29.92,SSW,208,6.0,11.0,78,0.00,,SKC,0.00,VWS V14.01,2013-06-26 14:10:00,
2013-06-26 09:15:00,81.3,73.4,29.93,SSW,202,0.0,11.0,77,0.00,,SKC,0.00,VWS V14.01,2013-06-26 14:15:00,
2013-06-26 09:20:00,81.6,73.7,29.93,SSE,164,0.0,8.0,77,0.00,,SKC,0.00,VWS V14.01,2013-06-26 14:20:00,
2013-06-26 09:25:00,82.1,73.8,29.93,South,175,0.0,9.0,76,0.00,,SKC,0.00,VWS V14.01,2013-06-26 14:25:00,
2013-06-26 09:30:00,82.5,73.8,29.93,SSE,157,0.0,9.0,75,0.00,,SKC,0.00,VWS V14.01,2013-06-26 14:30:00,
2013-06-26 09:35:00,82.8,73.7,29.93,SSW,198,0.0,11.0,74,0.00,,SKC,0.00,VWS V14.01,2013-06-26 14:35:00,
2013-06-26 09:40:00,83.2,73.7,29.93,SSE,167,0.0,8.0,73,0.00,,SKC,0.00,VWS V14.01,2013-06-26 14:40:00,
2013-06-26 09:45:00,83.6,74.0,29.93,SSE,156,0.0,11.0,73,0.00,,SKC,0.00,VWS V14.01,2013-06-26 14:45:00,
2013-06-26 09:50:00,83.8,73.8,29.93,SSE,159,1.0,8.0,72,0.00,,SKC,0.00,VWS V14.01,2013-06-26 14:50:00,
2013-06-26 09:55:00,84.1,74.1,29.93,SSW,196,1.0,8.0,72,0.00,,SKC,0.00,VWS V14.01,2013-06-26 14:55:00,
2013-06-26 10:00:00,84.2,74.2,29.93,South,190,0.0,8.0,72,0.00,,SKC,0.00,VWS V14.01,2013-06-26 15:00:00,
2013-06-26 10:05:00,84.4,73.6,29.93,SSE,161,2.0,12.0,70,0.00,,SKC,0.00,VWS V14.01,2013-06-26 15:05:00,
2013-06-26 10:10:00,84.5,73.7,29.93,South,188,0.0,7.0,70,0.00,,SKC,0.00,VWS V14.01,2013-06-26 15:10:00,
2013-06-26 10:15:00,84.5,73.7,29.93,SSW,205,2.0,9.0,70,0.00,,SKC,0.00,VWS V14.01,2013-06-26 15:15:00,
2013-06-26 10:20:00,84.7,73.4,29.93,South,178,2.0,10.0,69,0.00,,SKC,0.00,VWS V14.01,2013-06-26 15:20:00,
2013-06-26 10:25:00,85.0,73.7,29.93,SSE,161,3.0,10.0,69,0.00,,SKC,0.00,VWS V14.01,2013-06-26 15:25:00,
2013-06-26 10:30:00,85.3,74.0,29.92,South,169,5.0,9.0,69,0.00,,SKC,0.00,VWS V14.01,2013-06-26 15:30:00,
2013-06-26 10:35:00,85.7,73.9,29.93,SSE,165,0.0,11.0,68,0.00,,SKC,0.00,VWS V14.01,2013-06-26 15:35:00,
2013-06-26 10:40:00,86.2,74.0,29.92,South,188,4.0,10.0,67,0.00,,SKC,0.00,VWS V14.01,2013-06-26 15:40:00,
2013-06-26 10:45:00,86.6,73.9,29.93,SSE,164,0.0,10.0,66,0.00,,SKC,0.00,VWS V14.01,2013-06-26 15:45:00,
2013-06-26 10:50:00,86.9,73.7,29.93,SSE,168,3.0,10.0,65,0.00,,SKC,0.00,VWS V14.01,2013-06-26 15:50:00,
2013-06-26 10:55:00,87.2,74.0,29.93,SSE,165,0.0,10.0,65,0.00,,SKC,0.00,VWS V14.01,2013-06-26 15:55:00,
2013-06-26 11:00:00,87.3,74.1,29.93,South,183,0.0,9.0,65,0.00,,SKC,0.00,VWS V14.01,2013-06-26 16:00:00,
2013-06-26 11:05:00,87.4,73.7,29.93,South,183,0.0,9.0,64,0.00,,SKC,0.00,VWS V14.01,2013-06-26 16:05:00,
2013-06-26 11:10:00,87.6,73.9,29.92,South,181,1.0,6.0,64,0.00,,SKC,0.00,VWS V14.01,2013-06-26 16:10:00,
2013-06-26 11:15:00,87.9,74.2,29.93,South,169,2.0,7.0,64,0.00,,SKC,0.00,VWS V14.01,2013-06-26 16:15:00,
2013-06-26 11:20:00,88.1,73.9,29.93,South,178,0.0,7.0,63,0.00,,SKC,0.00,VWS V14.01,2013-06-26 16:20:00,
2013-06-26 11:25:00,88.3,74.1,29.92,South,183,0.0,7.0,63,0.00,,SKC,0.00,VWS V14.01,2013-06-26 16:25:00,
2013-06-26 11:30:00,88.5,74.3,29.92,SSW,198,0.0,6.0,63,0.00,,SKC,0.00,VWS V14.01,2013-06-26 16:30:00,
2013-06-26 11:35:00,88.7,74.0,29.92,South,190,4.0,6.0,62,0.00,,SKC,0.00,VWS V14.01,2013-06-26 16:35:00,
2013-06-26 11:40:00,88.8,74.1,29.92,South,169,3.0,9.0,62,0.00,,SKC,0.00,VWS V14.01,2013-06-26 16:40:00,
2013-06-26 11:45:00,89.2,74.5,29.92,South,179,5.0,9.0,62,0.00,,SKC,0.00,VWS V14.01,2013-06-26 16:45:00,
2013-06-26 11:50:00,89.5,73.8,29.92,South,170,0.0,7.0,60,0.00,,SKC,0.00,VWS V14.01,2013-06-26 16:50:00,
2013-06-26 11:55:00,89.5,73.8,29.92,SSE,159,1.0,10.0,60,0.00,,SKC,0.00,VWS V14.01,2013-06-26 16:55:00,
2013-06-26 12:00:00,89.4,73.7,29.92,SSE,165,9.0,12.0,60,0.00,,SKC,0.00,VWS V14.01,2013-06-26 17:00:00,
2013-06-26 12:05:00,89.5,74.3,29.91,South,169,0.0,12.0,61,0.00,,SKC,0.00,VWS V14.01,2013-06-26 17:05:00,
2013-06-26 12:10:00,90.0,73.8,29.92,South,176,4.0,6.0,59,0.00,,SKC,0.00,VWS V14.01,2013-06-26 17:10:00,
2013-06-26 12:15:00,90.2,73.9,29.92,South,170,0.0,12.0,59,0.00,,SKC,0.00,VWS V14.01,2013-06-26 17:15:00,
2013-06-26 12:20:00,90.6,73.8,29.92,South,173,7.0,9.0,58,0.00,,SKC,0.00,VWS V14.01,2013-06-26 17:20:00,
2013-06-26 12:25:00,91.1,74.3,29.91,South,173,0.0,9.0,58,0.00,,SKC,0.00,VWS V14.01,2013-06-26 17:25:00,
2013-06-26 12:30:00,91.2,73.8,29.91,SSE,163,0.0,16.0,57,0.00,,SKC,0.00,VWS V14.01,2013-06-26 17:30:00,
2013-06-26 12:35:00,91.4,74.0,29.91,SSE,155,0.0,16.0,57,0.00,,SKC,0.00,VWS V14.01,2013-06-26 17:35:00,
2013-06-26 12:40:00,91.7,74.3,29.91,SSE,162,0.0,6.0,57,0.00,,SKC,0.00,VWS V14.01,2013-06-26 17:40:00,
2013-06-26 12:45:00,92.0,73.5,29.91,SSE,160,3.0,7.0,55,0.00,,SKC,0.00,VWS V14.01,2013-06-26 17:45:00,
2013-06-26 12:50:00,92.2,73.7,29.91,SSW,205,7.0,8.0,55,0.00,,SKC,0.00,VWS V14.01,2013-06-26 17:50:00,
2013-06-26 12:55:00,92.4,73.9,29.91,SSW,200,0.0,11.0,55,0.00,,SKC,0.00,VWS V14.01,2013-06-26 17:55:00,
2013-06-26 13:00:00,92.6,74.1,29.91,SSW,208,5.0,7.0,55,0.00,,SKC,0.00,VWS V14.01,2013-06-26 18:00:00,
2013-06-26 13:05:00,92.9,73.8,29.91,SSW,207,0.0,8.0,54,0.00,,SKC,0.00,VWS V14.01,2013-06-26 18:05:00,
2013-06-26 13:10:00,93.1,74.0,29.91,South,176,5.0,7.0,54,0.00,,SKC,0.00,VWS V14.01,2013-06-26 18:10:00,
2013-06-26 13:15:00,93.3,73.1,29.91,South,171,1.0,7.0,52,0.00,,SKC,0.00,VWS V14.01,2013-06-26 18:15:00,
2013-06-26 13:20:00,93.4,73.7,29.91,SSE,167,3.0,4.0,53,0.00,,SKC,0.00,VWS V14.01,2013-06-26 18:20:00,
2013-06-26 13:25:00,93.5,73.8,29.91,SSE,165,1.0,11.0,53,0.00,,SKC,0.00,VWS V14.01,2013-06-26 18:25:00,
2013-06-26 13:30:00,93.6,73.3,29.90,South,169,0.0,9.0,52,0.00,,SKC,0.00,VWS V14.01,2013-06-26 18:30:00,
2013-06-26 13:35:00,93.8,73.5,29.90,SSE,168,4.0,13.0,52,0.00,,SKC,0.00,VWS V14.01,2013-06-26 18:35:00,
2013-06-26 13:40:00,94.0,74.3,29.90,South,182,0.0,9.0,53,0.00,,SKC,0.00,VWS V14.01,2013-06-26 18:40:00,
2013-06-26 13:45:00,94.4,72.9,29.90,SSE,167,3.0,12.0,50,0.00,,SKC,0.00,VWS V14.01,2013-06-26 18:45:00,
2013-06-26 13:50:00,94.6,73.1,29.90,SSE,166,0.0,6.0,50,0.00,,SKC,0.00,VWS V14.01,2013-06-26 18:50:00,
2013-06-26 13:55:00,95.1,73.6,29.90,SSE,166,0.0,6.0,50,0.00,,SKC,0.00,VWS V14.01,2013-06-26 18:55:00,
2013-06-26 14:00:00,95.5,73.3,29.90,SSE,155,0.0,10.0,49,0.00,,SKC,0.00,VWS V14.01,2013-06-26 19:00:00,
2013-06-26 14:05:00,95.5,72.7,29.90,South,178,3.0,10.0,48,0.00,,SKC,0.00,VWS V14.01,2013-06-26 19:05:00,
2013-06-26 14:10:00,95.5,73.9,29.89,South,178,2.0,8.0,50,0.00,,SKC,0.00,VWS V14.01,2013-06-26 19:10:00,
2013-06-26 14:15:00,95.6,73.4,29.89,SSE,167,0.0,9.0,49,0.00,,SKC,0.00,VWS V14.01,2013-06-26 19:15:00,
2013-06-26 14:20:00,96.0,73.2,29.89,SSE,162,0.0,5.0,48,0.00,,SKC,0.00,VWS V14.01,2013-06-26 19:20:00,
2013-06-26 14:25:00,96.2,73.3,29.89,SSE,161,0.0,8.0,48,0.00,,SKC,0.00,VWS V14.01,2013-06-26 19:25:00,
2013-06-26 14:30:00,96.3,73.4,29.89,SE,133,0.0,8.0,48,0.00,,SKC,0.00,VWS V14.01,2013-06-26 19:30:00,
2013-06-26 14:35:00,96.5,73.0,29.89,SE,130,0.0,8.0,47,0.00,,SKC,0.00,VWS V14.01,2013-06-26 19:35:00,
2013-06-26 14:40:00,97.0,73.4,29.88,SE,135,5.0,5.0,47,0.00,,SKC,0.00,VWS V14.01,2013-06-26 19:40:00,
2013-06-26 14:45:00,97.3,72.4,29.89,South,187,2.0,7.0,45,0.00,,SKC,0.00,VWS V14.01,2013-06-26 19:45:00,
2013-06-26 14:50:00,97.4,73.2,29.88,South,184,6.0,10.0,46,0.00,,SKC,0.00,VWS V14.01,2013-06-26 19:50:00,
2013-06-26 14:55:00,97.4,72.5,29.88,South,182,0.0,10.0,45,0.00,,SKC,0.00,VWS V14.01,2013-06-26 19:55:00,
2013-06-26 15:00:00,97.5,72.6,29.88,SSE,158,5.0,13.0,45,0.00,,SKC,0.00,VWS V14.01,2013-06-26 20:00:00,
2013-06-26 15:05:00,97.6,72.7,29.87,SSE,159,0.0,13.0,45,0.00,,SKC,0.00,VWS V14.01,2013-06-26 20:05:00,
2013-06-26 15:10:00,97.7,72.1,29.87,SSE,161,0.0,8.0,44,0.00,,SKC,0.00,VWS V14.01,2013-06-26 20:10:00,
2013-06-26 15:15:00,97.9,72.3,29.87,SSE,160,0.0,9.0,44,0.00,,SKC,0.00,VWS V14.01,2013-06-26 20:15:00,
2013-06-26 15:20:00,98.1,71.1,29.87,South,180,0.0,8.0,42,0.00,,SKC,0.00,VWS V14.01,2013-06-26 20:20:00,
2013-06-26 15:25:00,98.2,71.2,29.86,SW,215,0.0,11.0,42,0.00,,SKC,0.00,VWS V14.01,2013-06-26 20:25:00,
2013-06-26 15:30:00,98.5,72.2,29.87,SSE,168,1.0,7.0,43,0.00,,SKC,0.00,VWS V14.01,2013-06-26 20:30:00,
2013-06-26 15:35:00,98.7,72.3,29.86,SSE,153,3.0,7.0,43,0.00,,SKC,0.00,VWS V14.01,2013-06-26 20:35:00,
2013-06-26 15:40:00,98.7,72.3,29.86,SE,126,7.0,7.0,43,0.00,,SKC,0.00,VWS V14.01,2013-06-26 20:40:00,
2013-06-26 15:45:00,98.6,72.2,29.86,SE,130,1.0,11.0,43,0.00,,SKC,0.00,VWS V14.01,2013-06-26 20:45:00,
2013-06-26 15:50:00,98.4,72.1,29.86,ESE,118,1.0,10.0,43,0.00,,SKC,0.00,VWS V14.01,2013-06-26 20:50:00,
2013-06-26 15:55:00,98.4,72.1,29.86,ESE,119,3.0,10.0,43,0.00,,SKC,0.00,VWS V14.01,2013-06-26 20:55:00,
2013-06-26 16:00:00,98.5,72.2,29.85,SSE,163,1.0,11.0,43,0.00,,SKC,0.00,VWS V14.01,2013-06-26 21:00:00,
2013-06-26 16:05:00,98.4,72.1,29.85,SSE,161,4.0,11.0,43,0.00,,SKC,0.00,VWS V14.01,2013-06-26 21:05:00,
2013-06-26 16:10:00,98.4,71.4,29.85,SSE,163,4.0,10.0,42,0.00,,SKC,0.00,VWS V14.01,2013-06-26 21:10:00,
2013-06-26 16:15:00,98.8,71.7,29.85,SSE,159,0.0,11.0,42,0.00,,SKC,0.00,VWS V14.01,2013-06-26 21:15:00,
2013-06-26 16:20:00,98.9,71.8,29.85,SE,138,4.0,6.0,42,0.00,,SKC,0.00,VWS V14.01,2013-06-26 21:20:00,
2013-06-26 16:25:00,98.8,71.7,29.85,SSE,160,1.0,9.0,42,0.00,,SKC,0.00,VWS V14.01,2013-06-26 21:25:00,
2013-06-26 16:30:00,98.8,71.7,29.84,SE,128,1.0,8.0,42,0.00,,SKC,0.00,VWS V14.01,2013-06-26 21:30:00,
2013-06-26 16:35:00,99.1,71.3,29.85,SE,124,3.0,9.0,41,0.00,,SKC,0.00,VWS V14.01,2013-06-26 21:35:00,
2013-06-26 16:40:00,99.3,71.5,29.85,SSE,158,0.0,9.0,41,0.00,,SKC,0.00,VWS V14.01,2013-06-26 21:40:00,
2013-06-26 16:45:00,99.1,72.0,29.85,SSE,153,3.0,13.0,42,0.00,,SKC,0.00,VWS V14.01,2013-06-26 21:45:00,
2013-06-26 16:50:00,99.1,71.3,29.85,SSE,161,6.0,14.0,41,0.00,,SKC,0.00,VWS V14.01,2013-06-26 21:50:00,
2013-06-26 16:55:00,99.0,71.9,29.84,SSE,155,3.0,14.0,42,0.00,,SKC,0.00,VWS V14.01,2013-06-26 21:55:00,
2013-06-26 17:00:00,99.1,71.3,29.84,SSE,157,0.0,12.0,41,0.00,,SKC,0.00,VWS V14.01,2013-06-26 22:00:00,
2013-06-26 17:05:00,99.2,70.7,29.84,SE,126,0.0,13.0,40,0.00,,SKC,0.00,VWS V14.01,2013-06-26 22:05:00,
2013-06-26 17:10:00,99.2,70.7,29.84,SE,136,3.0,9.0,40,0.00,,SKC,0.00,VWS V14.01,2013-06-26 22:10:00,
2013-06-26 17:15:00,98.9,69.6,29.84,SSE,163,4.0,10.0,39,0.00,,SKC,0.00,VWS V14.01,2013-06-26 22:15:00,
2013-06-26 17:20:00,99.0,71.2,29.84,SE,132,2.0,8.0,41,0.00,,SKC,0.00,VWS V14.01,2013-06-26 22:20:00,
2013-06-26 17:25:00,99.0,70.5,29.84,SSE,153,2.0,8.0,40,0.00,,SKC,0.00,VWS V14.01,2013-06-26 22:25:00,
2013-06-26 17:30:00,99.0,70.5,29.84,SSE,153,0.0,8.0,40,0.00,,SKC,0.00,VWS V14.01,2013-06-26 22:30:00,
2013-06-26 17:35:00,99.1,70.6,29.84,SSE,159,3.0,13.0,40,0.00,,SKC,0.00,VWS V14.01,2013-06-26 22:35:00,
2013-06-26 17:40:00,99.0,71.2,29.83,SSE,165,0.0,9.0,41,0.00,,SKC,0.00,VWS V14.01,2013-06-26 22:40:00,
2013-06-26 17:45:00,98.7,70.2,29.83,SSE,165,1.0,10.0,40,0.00,,SKC,0.00,VWS V14.01,2013-06-26 22:45:00,
2013-06-26 17:50:00,98.4,69.9,29.83,SSE,168,4.0,11.0,40,0.00,,SKC,0.00,VWS V14.01,2013-06-26 22:50:00,
2013-06-26 17:55:00,98.2,69.8,29.83,SSE,166,3.0,14.0,40,0.00,,SKC,0.00,VWS V14.01,2013-06-26 22:55:00,
2013-06-26 18:00:00,98.1,70.4,29.83,SSE,165,0.0,9.0,41,0.00,,SKC,0.00,VWS V14.01,2013-06-26 23:00:00,
2013-06-26 18:05:00,98.1,69.7,29.83,SSE,165,8.0,9.0,40,0.00,,SKC,0.00,VWS V14.01,2013-06-26 23:05:00,
2013-06-26 18:10:00,98.0,70.3,29.83,SSE,161,3.0,12.0,41,0.00,,SKC,0.00,VWS V14.01,2013-06-26 23:10:00,
2013-06-26 18:15:00,97.9,69.5,29.83,SSE,153,0.0,12.0,40,0.00,,SKC,0.00,VWS V14.01,2013-06-26 23:15:00,
2013-06-26 18:20:00,97.8,69.4,29.83,SSE,160,5.0,9.0,40,0.00,,SKC,0.00,VWS V14.01,2013-06-26 23:20:00,
2013-06-26 18:25:00,97.7,70.0,29.83,SSE,150,0.0,9.0,41,0.00,,SKC,0.00,VWS V14.01,2013-06-26 23:25:00,
2013-06-26 18:30:00,97.6,69.2,29.83,SSE,155,9.0,10.0,40,0.00,,SKC,0.00,VWS V14.01,2013-06-26 23:30:00,
2013-06-26 18:35:00,97.4,69.8,29.82,SSE,165,0.0,10.0,41,0.00,,SKC,0.00,VWS V14.01,2013-06-26 23:35:00,
2013-06-26 18:40:00,97.3,70.4,29.83,SSE,165,0.0,2.0,42,0.00,,SKC,0.00,VWS V14.01,2013-06-26 23:40:00,
2013-06-26 18:45:00,97.3,71.1,29.83,SSE,159,0.0,9.0,43,0.00,,SKC,0.00,VWS V14.01,2013-06-26 23:45:00,
2013-06-26 18:50:00,97.0,71.5,29.82,SSE,163,1.0,8.0,44,0.00,,SKC,0.00,VWS V14.01,2013-06-26 23:50:00,
2013-06-26 18:55:00,96.8,71.3,29.83,SSE,157,0.0,8.0,44,0.00,,SKC,0.00,VWS V14.01,2013-06-26 23:55:00,
2013-06-26 19:00:00,96.7,71.9,29.83,SSE,155,3.0,5.0,45,0.00,,SKC,0.00,VWS V14.01,2013-06-27 00:00:00,
2013-06-26 19:05:00,96.4,70.9,29.83,South,169,0.0,10.0,44,0.00,,SKC,0.00,VWS V14.01,2013-06-27 00:05:00,
2013-06-26 19:10:00,96.1,71.3,29.83,SSE,164,1.0,7.0,45,0.00,,SKC,0.00,VWS V14.01,2013-06-27 00:10:00,
2013-06-26 19:15:00,95.7,71.0,29.83,SSE,163,0.0,7.0,45,0.00,,SKC,0.00,VWS V14.01,2013-06-27 00:15:00,
2013-06-26 19:20:00,95.4,70.7,29.83,SSE,155,0.0,10.0,45,0.00,,SKC,0.00,VWS V14.01,2013-06-27 00:20:00,
2013-06-26 19:25:00,95.2,70.5,29.83,SSE,154,0.0,10.0,45,0.00,,SKC,0.00,VWS V14.01,2013-06-27 00:25:00,
2013-06-26 19:30:00,95.1,70.4,29.83,SE,132,0.0,7.0,45,0.00,,SKC,0.00,VWS V14.01,2013-06-27 00:30:00,
2013-06-26 19:35:00,94.8,70.2,29.83,SE,129,0.0,7.0,45,0.00,,SKC,0.00,VWS V14.01,2013-06-27 00:35:00,
2013-06-26 19:40:00,94.7,70.1,29.83,SE,136,3.0,7.0,45,0.00,,SKC,0.00,VWS V14.01,2013-06-27 00:40:00,
2013-06-26 19:45:00,94.4,69.8,29.83,SE,137,0.0,7.0,45,0.00,,SKC,0.00,VWS V14.01,2013-06-27 00:45:00,
2013-06-26 19:50:00,94.2,69.6,29.83,SE,140,1.0,9.0,45,0.00,,SKC,0.00,VWS V14.01,2013-06-27 00:50:00,
2013-06-26 19:55:00,93.8,69.3,29.83,SE,143,0.0,9.0,45,0.00,,SKC,0.00,VWS V14.01,2013-06-27 00:55:00,
2013-06-26 20:00:00,93.5,69.6,29.83,SE,142,3.0,5.0,46,0.00,,SKC,0.00,VWS V14.01,2013-06-27 01:00:00,
2013-06-26 20:05:00,93.2,69.4,29.83,SSE,148,0.0,9.0,46,0.00,,SKC,0.00,VWS V14.01,2013-06-27 01:05:00,
2013-06-26 20:10:00,92.9,69.1,29.83,SSE,148,3.0,6.0,46,0.00,,SKC,0.00,VWS V14.01,2013-06-27 01:10:00,
2013-06-26 20:15:00,92.6,68.8,29.84,SSE,148,1.0,6.0,46,0.00,,SKC,0.00,VWS V14.01,2013-06-27 01:15:00,
2013-06-26 20:20:00,92.3,68.5,29.84,SSE,147,0.0,6.0,46,0.00,,SKC,0.00,VWS V14.01,2013-06-27 01:20:00,
2013-06-26 20:25:00,92.1,68.4,29.84,SSE,155,0.0,10.0,46,0.00,,SKC,0.00,VWS V14.01,2013-06-27 01:25:00,
2013-06-26 20:30:00,91.8,68.7,29.84,SSE,155,0.0,2.0,47,0.00,,SKC,0.00,VWS V14.01,2013-06-27 01:30:00,
2013-06-26 20:35:00,91.4,68.3,29.84,SSE,156,0.0,4.0,47,0.00,,SKC,0.00,VWS V14.01,2013-06-27 01:35:00,
2013-06-26 20:40:00,91.1,68.1,29.84,SSE,155,0.0,0.0,47,0.00,,SKC,0.00,VWS V14.01,2013-06-27 01:40:00,
2013-06-26 20:45:00,90.8,68.4,29.84,SSE,155,0.0,0.0,48,0.00,,SKC,0.00,VWS V14.01,2013-06-27 01:45:00,
2013-06-26 20:50:00,90.5,68.8,29.84,SSE,155,0.0,0.0,49,0.00,,SKC,0.00,VWS V14.01,2013-06-27 01:50:00,
2013-06-26 20:55:00,90.2,69.1,29.85,SSE,155,0.0,1.0,50,0.00,,SKC,0.00,VWS V14.01,2013-06-27 01:55:00,
2013-06-26 21:00:00,89.9,68.8,29.85,SSE,155,2.0,4.0,50,0.00,,SKC,0.00,VWS V14.01,2013-06-27 02:00:00,
2013-06-26 21:05:00,89.6,69.1,29.85,SSE,156,0.0,4.0,51,0.00,,SKC,0.00,VWS V14.01,2013-06-27 02:05:00,
2013-06-26 21:10:00,89.3,69.4,29.85,SSE,156,0.0,0.0,52,0.00,,SKC,0.00,VWS V14.01,2013-06-27 02:10:00,
2013-06-26 21:15:00,89.1,69.8,29.85,SSE,155,0.0,5.0,53,0.00,,SKC,0.00,VWS V14.01,2013-06-27 02:15:00,
2013-06-26 21:20:00,88.8,70.0,29.85,SSE,155,0.0,2.0,54,0.00,,SKC,0.00,VWS V14.01,2013-06-27 02:20:00,
2013-06-26 21:25:00,88.5,70.3,29.86,SSE,155,3.0,5.0,55,0.00,,SKC,0.00,VWS V14.01,2013-06-27 02:25:00,
2013-06-26 21:30:00,88.3,70.6,29.86,SSE,155,0.0,7.0,56,0.00,,SKC,0.00,VWS V14.01,2013-06-27 02:30:00,
2013-06-26 21:35:00,88.0,70.9,29.86,SSE,154,1.0,7.0,57,0.00,,SKC,0.00,VWS V14.01,2013-06-27 02:35:00,
2013-06-26 21:40:00,87.8,71.2,29.86,SSE,156,0.0,7.0,58,0.00,,SKC,0.00,VWS V14.01,2013-06-27 02:40:00,
2013-06-26 21:45:00,87.6,72.0,29.86,SSE,155,0.0,7.0,60,0.00,,SKC,0.00,VWS V14.01,2013-06-27 02:45:00,
2013-06-26 21:50:00,87.2,72.6,29.86,South,170,0.0,11.0,62,0.00,,SKC,0.00,VWS V14.01,2013-06-27 02:50:00,
2013-06-26 21:55:00,86.9,72.8,29.87,SSE,150,0.0,11.0,63,0.00,,SKC,0.00,VWS V14.01,2013-06-27 02:55:00,
2013-06-26 22:00:00,86.6,73.0,29.87,SSE,162,6.0,9.0,64,0.00,,SKC,0.00,VWS V14.01,2013-06-27 03:00:00,
2013-06-26 22:05:00,86.3,72.7,29.87,SE,135,7.0,12.0,64,0.00,,SKC,0.00,VWS V14.01,2013-06-27 03:05:00,
2013-06-26 22:10:00,85.9,72.8,29.87,SSE,155,2.0,9.0,65,0.00,,SKC,0.00,VWS V14.01,2013-06-27 03:10:00,
2013-06-26 22:15:00,85.7,72.6,29.88,SSE,167,0.0,9.0,65,0.00,,SKC,0.00,VWS V14.01,2013-06-27 03:15:00,
2013-06-26 22:20:00,85.3,72.7,29.88,South,173,0.0,15.0,66,0.00,,SKC,0.00,VWS V14.01,2013-06-27 03:20:00,
2013-06-26 22:25:00,84.9,72.7,29.88,SE,142,3.0,15.0,67,0.00,,SKC,0.00,VWS V14.01,2013-06-27 03:25:00,
2013-06-26 22:30:00,84.6,72.9,29.89,SE,130,0.0,8.0,68,0.00,,SKC,0.00,VWS V14.01,2013-06-27 03:30:00,
2013-06-26 22:35:00,84.4,72.7,29.89,SE,138,0.0,8.0,68,0.00,,SKC,0.00,VWS V14.01,2013-06-27 03:35:00,
2013-06-26 22:40:00,84.1,72.8,29.89,SSE,165,0.0,10.0,69,0.00,,SKC,0.00,VWS V14.01,2013-06-27 03:40:00,
2013-06-26 22:45:00,83.8,73.0,29.90,South,176,0.0,11.0,70,0.00,,SKC,0.00,VWS V14.01,2013-06-27 03:45:00,
2013-06-26 22:50:00,83.5,73.1,29.90,South,171,0.0,4.0,71,0.00,,SKC,0.00,VWS V14.01,2013-06-27 03:50:00,
2013-06-26 22:55:00,83.2,72.8,29.90,SSE,168,0.0,7.0,71,0.00,,SKC,0.00,VWS V14.01,2013-06-27 03:55:00,
2013-06-26 23:00:00,83.0,73.1,29.91,SSE,166,0.0,4.0,72,0.00,,SKC,0.00,VWS V14.01,2013-06-27 04:00:00,
2013-06-26 23:01:00,83.0,73.1,29.91,SSE,166,0.0,4.0,72,0.00,,SKC,0.00,VWS V14.01,2013-06-27 04:01:00,
2013-06-26 23:06:00,82.7,73.2,29.91,SSE,165,0.0,0.0,73,0.00,,SKC,0.00,VWS V14.01,2013-06-27 04:06:00,
2013-06-26 23:10:00,82.7,73.2,29.91,SSE,165,0.0,6.0,73,0.00,,SKC,0.00,VWS V14.01,2013-06-27 04:10:00,
2013-06-26 23:11:00,82.5,73.4,29.91,SSE,165,0.0,7.0,74,0.00,,SKC,0.00,VWS V14.01,2013-06-27 04:11:00,
2013-06-26 23:16:00,82.2,73.5,29.91,SSE,164,0.0,0.0,75,0.00,,SKC,0.00,VWS V14.01,2013-06-27 04:16:00,
2013-06-26 23:20:00,82.3,73.6,29.91,SSE,164,0.0,7.0,75,0.00,,SKC,0.00,VWS V14.01,2013-06-27 04:20:00,
2013-06-26 23:21:00,82.0,73.3,29.91,SSE,165,0.0,6.0,75,0.00,,SKC,0.00,VWS V14.01,2013-06-27 04:21:00,
2013-06-26 23:26:00,81.7,73.4,29.91,SSE,165,0.0,0.0,76,0.00,,SKC,0.00,VWS V14.01,2013-06-27 04:26:00,
2013-06-26 23:30:00,81.7,73.4,29.92,SSE,165,0.0,12.0,76,0.00,,SKC,0.00,VWS V14.01,2013-06-27 04:30:00,
2013-06-26 23:31:00,81.5,73.6,29.92,SSE,163,0.0,9.0,77,0.00,,SKC,0.00,VWS V14.01,2013-06-27 04:31:00,
2013-06-26 23:36:00,81.2,73.7,29.92,SSE,160,9.0,9.0,78,0.00,,SKC,0.00,VWS V14.01,2013-06-27 04:36:00,
2013-06-26 23:40:00,81.2,73.7,29.92,SSE,163,1.0,9.0,78,0.00,,SKC,0.00,VWS V14.01,2013-06-27 04:40:00,
2013-06-26 23:41:00,81.0,73.5,29.91,SSE,162,0.0,12.0,78,0.00,,SKC,0.00,VWS V14.01,2013-06-27 04:41:00,
2013-06-26 23:46:00,80.7,73.6,29.92,SSE,161,0.0,0.0,79,0.00,,SKC,0.00,VWS V14.01,2013-06-27 04:46:00,
2013-06-26 23:50:00,80.8,73.7,29.92,SSE,161,0.0,12.0,79,0.00,,SKC,0.00,VWS V14.01,2013-06-27 04:50:00,
2013-06-26 23:51:00,80.5,73.4,29.92,SSE,161,0.0,9.0,79,0.00,,SKC,0.00,VWS V14.01,2013-06-27 04:51:00,
2013-06-26 23:56:00,80.3,73.2,29.91,SSE,161,0.0,0.0,79,0.00,,SKC,0.00,VWS V14.01,2013-06-27 04:56:00,